• In Denmark
  • List of Countries
  • For 7 days
  • Water Temperature
  • Satellite Maps
  • Weather Map
  • Weather Widgets
  • user-avatar
    Login

    Hourly Weather Macapa

    Today, 17 December, Sunday

    Time Temperature Precipitation Wind Pressure Humidity
    00:00 +26°C° 0 mm 2 mps 758 mmHg 94%
    01:00 +26°C° 0 mm 2 mps 758 mmHg 94%
    02:00 +26°C° 0 mm 2 mps 757 mmHg 94%
    03:00 +26°C° 0 mm 2 mps 757 mmHg 94%
    04:00 +25°C° 0.2 mm 1 mps 757 mmHg 95%
    05:00 +25°C° 0.2 mm 1 mps 757 mmHg 95%
    06:00 +25°C° 0.2 mm 1 mps 757 mmHg 95%
    07:00 +27°C° 0 mm 1 mps 758 mmHg 89%
    08:00 +28°C° 0 mm 2 mps 758 mmHg 83%
    09:00 +29°C° 0 mm 2 mps 758 mmHg 77%
    10:00 +31°C° 0.1 mm 2 mps 758 mmHg 71%
    11:00 +32°C° 0.1 mm 2 mps 758 mmHg 65%
    12:00 +34°C° 0.1 mm 2 mps 758 mmHg 60%
    13:00 +34°C° 0.7 mm 3 mps 757 mmHg 62%
    14:00 +34°C° 0.7 mm 3 mps 757 mmHg 64%
    15:00 +33°C° 0.7 mm 3 mps 756 mmHg 66%
    16:00 +31°C° 0.5 mm 3 mps 756 mmHg 72%
    17:00 +30°C° 0.5 mm 3 mps 756 mmHg 78%
    18:00 +29°C° 0.5 mm 3 mps 756 mmHg 83%
    19:00 +28°C° 0.8 mm 3 mps 757 mmHg 87%
    20:00 +27°C° 0.8 mm 3 mps 758 mmHg 90%
    21:00 +26°C° 0.8 mm 3 mps 758 mmHg 93%
    22:00 +26°C° 0.4 mm 2 mps 758 mmHg 94%
    23:00 +26°C° 0.4 mm 2 mps 758 mmHg 95%

    Tomorrow, 18 December, Monday

    Time Temperature Precipitation Wind Pressure Humidity
    00:00 +26°C° 0.4 mm 2 mps 758 mmHg 96%
    01:00 +26°C° 0.4 mm 2 mps 758 mmHg 96%
    02:00 +25°C° 0.4 mm 2 mps 757 mmHg 97%
    03:00 +25°C° 0.4 mm 2 mps 757 mmHg 97%
    04:00 +25°C° 0.2 mm 2 mps 757 mmHg 97%
    05:00 +25°C° 0.2 mm 1 mps 757 mmHg 97%
    06:00 +25°C° 0.2 mm 1 mps 757 mmHg 97%
    07:00 +26°C° 0 mm 1 mps 758 mmHg 94%
    08:00 +27°C° 0 mm 1 mps 758 mmHg 90%
    09:00 +28°C° 0 mm 2 mps 759 mmHg 87%
    10:00 +29°C° 0.1 mm 2 mps 759 mmHg 80%
    11:00 +30°C° 0.1 mm 2 mps 759 mmHg 72%
    12:00 +31°C° 0.1 mm 2 mps 759 mmHg 65%
    13:00 +32°C° 0.3 mm 2 mps 758 mmHg 65%
    14:00 +32°C° 0.3 mm 2 mps 757 mmHg 64%
    15:00 +33°C° 0.3 mm 3 mps 756 mmHg 63%
    16:00 +31°C° 0.9 mm 2 mps 756 mmHg 71%
    17:00 +29°C° 0.9 mm 2 mps 756 mmHg 79%
    18:00 +28°C° 0.9 mm 2 mps 756 mmHg 87%
    19:00 +27°C° 0.2 mm 2 mps 757 mmHg 90%
    20:00 +26°C° 0.2 mm 2 mps 758 mmHg 92%
    21:00 +26°C° 0.2 mm 2 mps 758 mmHg 94%
    22:00 +26°C° 0 mm 2 mps 759 mmHg 95%
    23:00 +26°C° 0 mm 2 mps 759 mmHg 95%

    Day after tomorrow, 19 December, Tuesday

    Time Temperature Precipitation Wind Pressure Humidity
    00:00 +26°C° 0 mm 1 mps 759 mmHg 96%
    01:00 +26°C° 0 mm 1 mps 758 mmHg 96%
    02:00 +26°C° 0 mm 1 mps 758 mmHg 96%
    03:00 +26°C° 0 mm 1 mps 757 mmHg 96%
    04:00 +26°C° 0 mm 1 mps 757 mmHg 97%
    05:00 +25°C° 0 mm 1 mps 757 mmHg 97%
    06:00 +25°C° 0 mm 1 mps 757 mmHg 97%
    07:00 +27°C° 0.1 mm 1 mps 758 mmHg 91%
    08:00 +28°C° 0.1 mm 2 mps 758 mmHg 85%
    09:00 +30°C° 0.1 mm 2 mps 759 mmHg 79%
    10:00 +31°C° 0.1 mm 2 mps 759 mmHg 71%
    11:00 +34°C° 0.1 mm 2 mps 758 mmHg 63%
    12:00 +35°C° 0.1 mm 3 mps 758 mmHg 55%
    13:00 +35°C° 0.6 mm 3 mps 757 mmHg 59%
    14:00 +34°C° 0.6 mm 3 mps 757 mmHg 62%
    15:00 +33°C° 0.6 mm 3 mps 756 mmHg 66%
    16:00 +31°C° 1.1 mm 3 mps 756 mmHg 73%
    17:00 +29°C° 1.1 mm 3 mps 756 mmHg 80%
    18:00 +28°C° 1.1 mm 3 mps 756 mmHg 88%
    19:00 +27°C° 0.2 mm 2 mps 757 mmHg 90%
    20:00 +27°C° 0.2 mm 2 mps 758 mmHg 93%
    21:00 +26°C° 0.2 mm 2 mps 758 mmHg 95%
    22:00 +26°C° 0.1 mm 2 mps 758 mmHg 95%
    23:00 +26°C° 0.1 mm 2 mps 758 mmHg 96%

    20 December, Wednesday

    Time Temperature Precipitation Wind Pressure Humidity
    00:00 +26°C° 0.1 mm 2 mps 758 mmHg 97%
    01:00 +26°C° 0 mm 2 mps 758 mmHg 97%
    02:00 +25°C° 0 mm 1 mps 757 mmHg 97%
    03:00 +25°C° 0 mm 1 mps 756 mmHg 98%
    04:00 +25°C° 0.1 mm 1 mps 757 mmHg 98%
    05:00 +25°C° 0.1 mm 1 mps 757 mmHg 98%
    06:00 +25°C° 0.1 mm 1 mps 757 mmHg 98%
    07:00 +26°C° 0.1 mm 1 mps 758 mmHg 92%
    08:00 +28°C° 0.1 mm 1 mps 758 mmHg 86%
    09:00 +29°C° 0.1 mm 2 mps 759 mmHg 80%
    10:00 +31°C° 0.1 mm 2 mps 758 mmHg 72%
    11:00 +32°C° 0.1 mm 2 mps 758 mmHg 64%
    12:00 +35°C° 0.1 mm 2 mps 758 mmHg 56%
    13:00 +35°C° 0.3 mm 3 mps 757 mmHg 55%
    14:00 +35°C° 0.3 mm 3 mps 756 mmHg 54%
    15:00 +35°C° 0.3 mm 3 mps 755 mmHg 53%
    16:00 +34°C° 0.1 mm 3 mps 755 mmHg 59%
    17:00 +31°C° 0.1 mm 3 mps 755 mmHg 66%
    18:00 +30°C° 0.1 mm 3 mps 755 mmHg 72%
    19:00 +29°C° 0.4 mm 3 mps 756 mmHg 78%
    20:00 +27°C° 0.4 mm 3 mps 756 mmHg 85%
    21:00 +26°C° 0.4 mm 3 mps 757 mmHg 91%
    22:00 +26°C° 1.1 mm 3 mps 757 mmHg 92%
    23:00 +26°C° 1.1 mm 3 mps 757 mmHg 94%

    21 December, Thursday

    Time Temperature Precipitation Wind Pressure Humidity
    00:00 +25°C° 1.1 mm 3 mps 757 mmHg 95%
    01:00 +25°C° 0.7 mm 2 mps 757 mmHg 96%
    02:00 +25°C° 0.7 mm 2 mps 756 mmHg 96%
    03:00 +25°C° 0.7 mm 2 mps 756 mmHg 97%
    04:00 +25°C° 0.4 mm 2 mps 756 mmHg 97%
    05:00 +25°C° 0.4 mm 2 mps 757 mmHg 97%
    06:00 +25°C° 0.4 mm 2 mps 757 mmHg 97%
    07:00 +26°C° 0.2 mm 2 mps 757 mmHg 93%
    08:00 +27°C° 0.2 mm 2 mps 758 mmHg 88%
    09:00 +29°C° 0.2 mm 3 mps 759 mmHg 84%
    10:00 +29°C° 0.4 mm 3 mps 758 mmHg 80%
    11:00 +30°C° 0.4 mm 3 mps 758 mmHg 77%
    12:00 +31°C° 0.4 mm 3 mps 758 mmHg 73%
    13:00 +31°C° 0.7 mm 3 mps 757 mmHg 72%
    14:00 +31°C° 0.7 mm 3 mps 756 mmHg 71%
    15:00 +33°C° 0.7 mm 3 mps 756 mmHg 70%
    16:00 +31°C° 0.3 mm 3 mps 756 mmHg 74%
    17:00 +30°C° 0.3 mm 3 mps 756 mmHg 77%
    18:00 +29°C° 0.3 mm 3 mps 756 mmHg 81%
    19:00 +28°C° 0 mm 3 mps 756 mmHg 84%
    20:00 +27°C° 0 mm 3 mps 757 mmHg 86%
    21:00 +26°C° 0 mm 3 mps 757 mmHg 89%
    22:00 +26°C° 0.1 mm 3 mps 757 mmHg 91%
    23:00 +26°C° 0.1 mm 3 mps 757 mmHg 92%

    22 December, Friday

    Time Temperature Precipitation Wind Pressure Humidity
    00:00 +26°C° 0.1 mm 2 mps 757 mmHg 94%
    01:00 +25°C° 0.1 mm 2 mps 757 mmHg 95%
    02:00 +25°C° 0.1 mm 2 mps 756 mmHg 95%
    03:00 +25°C° 0.1 mm 2 mps 756 mmHg 96%
    04:00 +25°C° 0.1 mm 2 mps 756 mmHg 96%
    05:00 +25°C° 0.1 mm 2 mps 757 mmHg 96%
    06:00 +25°C° 0.1 mm 2 mps 757 mmHg 97%
    07:00 +26°C° 0 mm 2 mps 757 mmHg 90%
    08:00 +28°C° 0 mm 2 mps 758 mmHg 83%
    09:00 +29°C° 0 mm 3 mps 758 mmHg 76%
    10:00 +31°C° 0.3 mm 3 mps 758 mmHg 70%
    11:00 +33°C° 0.3 mm 3 mps 757 mmHg 64%
    12:00 +34°C° 0.3 mm 3 mps 757 mmHg 59%
    13:00 +34°C° 0.7 mm 3 mps 756 mmHg 63%
    14:00 +33°C° 0.7 mm 3 mps 756 mmHg 67%
    15:00 +31°C° 0.7 mm 3 mps 755 mmHg 71%
    16:00 +30°C° 0.6 mm 3 mps 755 mmHg 76%
    17:00 +29°C° 0.6 mm 3 mps 755 mmHg 81%
    18:00 +28°C° 0.6 mm 3 mps 755 mmHg 86%
    19:00 +27°C° 1.1 mm 3 mps 756 mmHg 89%
    20:00 +27°C° 1.1 mm 3 mps 756 mmHg 92%
    21:00 +26°C° 1.1 mm 3 mps 757 mmHg 95%
    22:00 +26°C° 2 mm 3 mps 757 mmHg 95%
    23:00 +26°C° 2 mm 3 mps 757 mmHg 95%
    Show more

    XHprof extension not loaded